Location: Recife
(8.0585°S, 34.8848°W)
Time: 11:02:53
(UTC-03:00)

Altair - Pass Details

Date: 16 April 2026
Orbit: 1501 x 1682 km, 47.2° (Epoch: 20 May)

Event Time Altitude Azimuth Distance (km) Brightness Sun altitude
Rises 22:27:07 0° 301° (WNW) 4,639 - -76.9°
Reaches altitude 10° 22:30:22 10° 294° (WNW) 3,650 - -77.7°
Maximum altitude 22:38:48 41° 227° (SW) 2,055 - -79.7°
Drops below altitude 10° 22:47:21 10° 159° (SSE) 3,683 - -81.8°
Sets 22:50:41 0° 151° (SSE) 4,685 - -82.6°
